SCP
0 0 0 0 0 0 0 0 0 0 0 0 0 0 0 0 0 0 0 0 0 0
0 0 0 0 0 0 0 0 0 0 0 0 0 0 0 0 0 0 0 0 0 0
0 0 0 0 0 0 0 0 0 0 0 0 0 0 0 0 0 0 0 0 0 0
0 0 0 0 0 0 0 0 0 0 0 0 0 0 0 0 0 0 0 0 0 0
0 0 0 0 0 0 0 0 0 0 0 0 0 0 0 0 0 0 0 0 0 0
0 0 0 0 0 0 0 0 0 0 0 0 0 0 0 0 0 0 0 0 0 0
0 0 0 0 0 0 0 0 0 0 0 0 0 0 0 0 0 0 0 0 0 0
0 0 0 0 0 0 0 0 0 0 0 0 0 0 0 0 0 0 0 0 0 0
0 0 0 0 0 0 0 0 0 0 0 0 0 0 0 0 0 0 0 0 0 0
0 0 0 0 0 0 0 0 0 0 0 0 0 0 0 0 0 0 0 0 0 0
0 0 0 0 0 0 0 0 0 0 0 0 0 0 0 0 0 0 0 0 -0 -0
0 0 0 0 0 0 0 0 0 0 0 0 0 0 0 0 0 0 0 0 0 -0
0 0 0 0 0 0 0 0 0 0 0 0 0 0 0 0 0 0 0 0 0 0
0 0 0 0 0 0 0 0 0 0 0 0 0 0 0 0 0 0 0 0 0 0
Wind_Speed_500mb
60 66 70 72 74 76 78 78 73 71 64 63 65 64 71 78 84 80 78 75 78 79
60 64 67 69 70 72 74 75 72 71 70 69 68 67 68 73 82 86 92 86 90 78
60 62 64 66 68 70 72 72 73 72 70 69 69 67 66 73 77 82 84 89 91 84
56 59 61 65 67 69 70 70 70 70 72 70 71 71 74 76 76 81 84 84 84 91
53 56 60 63 64 66 67 67 69 72 76 77 78 77 80 82 80 81 81 81 83 82
49 54 58 60 63 62 65 67 72 76 77 77 78 78 80 80 79 78 75 76 74 79
46 51 55 57 57 58 62 70 74 76 79 83 85 85 79 80 86 88 81 75 71 68
41 45 47 50 53 57 63 69 73 81 88 93 93 87 85 84 80 74 72 68 73 72
36 40 44 50 52 56 62 67 74 84 92 98 95 77 85 77 57 48 48 54 60 60
31 34 41 46 49 55 60 64 74 83 91 99 97 81 90 67 45 44 44 43 47 44
26 29 37 42 46 48 51 62 74 82 91 98 96 84 92 66 52 54 55 53 34 32
20 23 30 35 37 39 47 54 61 72 85 99 101 87 86 76 69 75 80 71 8 26
16 18 23 25 27 36 40 48 60 70 82 90 98 103 83 79 75 86 103 106 34 30
14 13 16 17 18 29 32 39 52 62 73 84 92 98 91 75 71 79 97 113 94 45
Wind_Direction_500mb
322 324 326 328 327 328 329 328 326 321 313 306 301 296 292 289 287 282 272 270 267 260
325 328 329 329 331 330 329 325 324 321 318 315 310 303 296 287 282 281 275 274 261 256
328 330 331 332 332 331 331 330 327 324 323 320 317 312 304 296 290 282 274 268 262 261
329 331 334 335 336 337 336 334 329 329 327 323 318 319 310 301 295 288 282 273 265 254
332 334 337 339 342 341 340 338 339 338 335 331 326 318 306 306 301 292 286 277 271 262
335 338 342 346 347 345 344 346 347 345 338 335 332 324 321 315 307 298 288 280 271 261
339 342 348 353 351 352 352 354 356 352 349 347 339 331 324 322 313 298 292 282 274 264
341 347 354 357 359 1 2 5 5 360 357 351 344 337 336 326 314 302 294 284 276 269
343 352 2 1 4 7 9 10 8 3 2 355 348 345 338 330 319 323 302 291 283 261
341 358 6 6 10 14 12 13 14 10 7 3 360 357 347 340 342 349 345 320 285 267
340 0 12 10 17 24 21 20 20 17 13 9 9 7 358 357 6 10 7 356 295 247
333 4 16 16 28 31 19 22 25 21 16 15 15 13 6 9 25 26 25 17 337 166
328 5 20 18 29 25 16 25 25 23 19 15 18 19 11 15 30 38 38 33 79 122
312 355 11 4 11 15 10 22 26 22 26 27 21 23 22 22 34 45 52 55 61 71
Wind_Speed_850mb
60 66 70 72 74 76 78 78 73 71 64 63 65 64 71 78 84 80 78 75 78 79
60 64 67 69 70 72 74 75 72 71 70 69 68 67 68 73 82 86 92 86 90 78
60 62 64 66 68 70 72 72 73 72 70 69 69 67 66 73 77 82 84 89 91 84
56 59 61 65 67 69 70 70 70 70 72 70 71 71 74 76 76 81 84 84 84 91
53 56 60 63 64 66 67 67 69 72 76 77 78 77 80 82 80 81 81 81 83 82
49 54 58 60 63 62 65 67 72 76 77 77 78 78 80 80 79 78 75 76 74 79
46 51 55 57 57 58 62 70 74 76 79 83 85 85 79 80 86 88 81 75 71 68
41 45 47 50 53 57 63 69 73 81 88 93 93 87 85 84 80 74 72 68 73 72
36 40 44 50 52 56 62 67 74 84 92 98 95 77 85 77 57 48 48 54 60 60
31 34 41 46 49 55 60 64 74 83 91 99 97 81 90 67 45 44 44 43 47 44
26 29 37 42 46 48 51 62 74 82 91 98 96 84 92 66 52 54 55 53 34 32
20 23 30 35 37 39 47 54 61 72 85 99 101 87 86 76 69 75 80 71 8 26
16 18 23 25 27 36 40 48 60 70 82 90 98 103 83 79 75 86 103 106 34 30
14 13 16 17 18 29 32 39 52 62 73 84 92 98 91 75 71 79 97 113 94 45
Wind_Direction_850mb
322 324 326 328 327 328 329 328 326 321 313 306 301 296 292 289 287 282 272 270 267 260
325 328 329 329 331 330 329 325 324 321 318 315 310 303 296 287 282 281 275 274 261 256
328 330 331 332 332 331 331 330 327 324 323 320 317 312 304 296 290 282 274 268 262 261
329 331 334 335 336 337 336 334 329 329 327 323 318 319 310 301 295 288 282 273 265 254
332 334 337 339 342 341 340 338 339 338 335 331 326 318 306 306 301 292 286 277 271 262
335 338 342 346 347 345 344 346 347 345 338 335 332 324 321 315 307 298 288 280 271 261
339 342 348 353 351 352 352 354 356 352 349 347 339 331 324 322 313 298 292 282 274 264
341 347 354 357 359 1 2 5 5 360 357 351 344 337 336 326 314 302 294 284 276 269
343 352 2 1 4 7 9 10 8 3 2 355 348 345 338 330 319 323 302 291 283 261
341 358 6 6 10 14 12 13 14 10 7 3 360 357 347 340 342 349 345 320 285 267
340 0 12 10 17 24 21 20 20 17 13 9 9 7 358 357 6 10 7 356 295 247
333 4 16 16 28 31 19 22 25 21 16 15 15 13 6 9 25 26 25 17 337 166
328 5 20 18 29 25 16 25 25 23 19 15 18 19 11 15 30 38 38 33 79 122
312 355 11 4 11 15 10 22 26 22 26 27 21 23 22 22 34 45 52 55 61 71